This demonstration page uses our WeatherBlox Daily Observations layout. Learn more.

39.92423, -83.80882

Hourly Observations for February 25, 2020

Temp ( °F °C ) Dew Point ( °F °C ) Humidity (%) Winds ( mph kmh ) Pressure ( in mb ) Visibility ( mi km ) Precip ( " mm )
12:56 am 00:56 Cloudy 40 4.4 40 4.4 100 100 E 9 15 29.77 1008 7 11.26538 0 0
1:56 am 01:56 Cloudy with Light Rain 40 4.4 40 4.4 100 100 E 7 11 29.75 1008 3 4.82802 0 0
2:10 am 02:10 Cloudy with Light Rain 39 4 39 4 100 100 E 8 13 29.77 1008 2.5 4.02335 0 0
2:41 am 02:41 Cloudy with Light Rain 39 4 39 4 100 100 E 10 17 29.76 1008 3 4.82802 0 0
2:56 am 02:56 Cloudy with Light Rain 40 4.4 40 4.4 100 100 ENE 10 17 29.73 1007 4 6.43736 0 0
3:56 am 03:56 Cloudy with Light Rain 40 4.4 40 4.4 100 100 ENE 8 13 29.74 1007 3 4.82802 0 0
4:56 am 04:56 Cloudy with Light Rain 40 4.4 40 4.4 100 100 ENE 12 19 29.73 1007 4 6.43736 0 0
5:56 am 05:56 Cloudy with Mist and Fog 40 4.4 40 4.4 100 100 ENE 9 15 29.74 1007 3 4.82802 0 0
6:41 am 06:41 Cloudy with Mist and Fog 39 4 39 4 100 100 ENE 10 17 29.74 1007 2.5 4.02335 0 0
6:56 am 06:56 Cloudy with Mist and Fog 40 4.4 40 4.4 100 100 ENE 10 17 29.72 1007 2.5 4.02335 0 0
7:20 am 07:20 Cloudy with Light Rain 39 4 39 4 100 100 E 12 19 29.74 1007 1.25 2.011675 0 0
7:29 am 07:29 Cloudy with Light Rain 39 4 N/A N/A ENE 10 17 29.75 1007 1 1.60934 0 0
7:42 am 07:42 Cloudy with Mist and Fog 39 4 39 4 100 100 ENE 12 19 29.75 1007 1.25 2.011675 0 0
7:56 am 07:56 Cloudy with Light Rain 40 4.4 40 4.4 100 100 ENE 9 15 29.74 1007 1 1.60934 0 0
8:18 am 08:18 Cloudy with Mist and Fog 39 4 39 4 100 100 NE 10 17 29.77 1008 1.25 2.011675 0 0
8:56 am 08:56 Cloudy with Light Rain 40 4.4 40 4.4 100 100 NE 10 17 29.76 1008 1.5 2.41401 0 0
9:34 am 09:34 Cloudy with Light Rain 39 4 39 4 100 100 NE 10 17 29.78 1008 2 3.21868 0 0
9:56 am 09:56 Cloudy with Mist and Fog 40 4.4 40 4.4 100 100 NE 12 19 29.76 1008 2 3.21868 0 0
10:24 am 10:24 Cloudy with Light Rain 39 4 39 4 100 100 NE 14 22 29.78 1008 3 4.82802 0 0
10:43 am 10:43 Cloudy with Light Rain 41 5 41 5 100 100 ENE 13 20 29.78 1009 2.5 4.02335 0 0
10:52 am 10:52 Cloudy with Light Rain 41 5 41 5 100 100 NE 12 19 29.78 1009 3 4.82802 0 0
10:56 am 10:56 Cloudy with Light Rain 41 5 41 5 100 100 NE 10 17 29.77 1008 4 6.43736 0 0
11:14 am 11:14 Cloudy with Light Rain 41 5 41 5 100 100 NE 14 22 29.78 1009 2.5 4.02335 0 0
11:56 am 11:56 Cloudy with Light Rain 41 5 41 5 100 100 NE 13 20 29.77 1008 2 3.21868 0 0
12:39 pm 12:39 Cloudy with Light Rain 43 6 43 6 100 100 NE 13 20 29.77 1008 1.5 2.41401 0 0
12:56 pm 12:56 Cloudy with Light Rain 42 5.6 42 5.6 100 100 ENE 12 19 29.77 1008 1.75 2.816345 0 0
1:04 pm 13:04 Cloudy with Light Rain 43 6 43 6 100 100 NE 12 19 29.77 1008 2.5 4.02335 0 0
1:11 pm 13:11 Cloudy with Light Rain 43 6 43 6 100 100 NE 13 20 29.77 1008 3 4.82802 0 0
1:19 pm 13:19 Cloudy with Light Rain 43 6 43 6 100 100 NE 12 19 29.77 1008 4 6.43736 0 0
1:30 pm 13:30 Cloudy with Light Rain 43 6 43 6 100 100 NE 13 20 29.77 1008 2.5 4.02335 0 0
1:44 pm 13:44 Cloudy with Light Rain 43 6 43 6 100 100 NE 12 19 29.77 1008 3 4.82802 0 0
1:56 pm 13:56 Cloudy with Light Rain 42 5.6 42 5.6 100 100 NE 14 22 29.76 1008 2.5 4.02335 0 0
2:15 pm 14:15 Cloudy with Light Rain 43 6 43 6 100 100 NE 12 19 29.77 1008 1.5 2.41401 0 0
2:28 pm 14:28 Cloudy with Light Rain 43 6 43 6 100 100 NE 9 15 29.77 1008 2 3.21868 0 0
2:35 pm 14:35 Cloudy with Light Rain 43 6 43 6 100 100 NE 10 17 29.77 1008 1.75 2.816345 0 0
2:46 pm 14:46 Cloudy with Light Rain 43 6 43 6 100 100 NE 10 17 29.78 1008 2 3.21868 0 0
2:53 pm 14:53 Cloudy with Light Rain 43 6 43 6 100 100 NNE 9 15 29.78 1008 1.5 2.41401 0 0
2:56 pm 14:56 Cloudy with Light Rain 42 5.6 42 5.6 100 100 NE 10 17 29.77 1008 1.5 2.41401 0 0
3:29 pm 15:29 Cloudy with Light Rain 41 5 41 5 100 100 NNE 9 15 29.8 1009 2.5 4.02335 0 0
3:40 pm 15:40 Cloudy with Light Rain 41 5 41 5 100 100 NE 10 17 29.8 1009 3 4.82802 0 0
3:56 pm 15:56 Cloudy with Light Rain 41 5 41 5 100 100 NE 12 19 29.79 1009 3 4.82802 0 0
4:56 pm 16:56 Cloudy with Light Rain 40 4.4 40 4.4 100 100 NE 8 13 29.81 1009 4 6.43736 0 0
5:56 pm 17:56 Cloudy with Light Rain 39 3.9 39 3.9 100 100 NE 8 13 29.83 1010 3 4.82802 0 0
6:14 pm 18:14 Cloudy with Light Rain 39 4 39 4 100 100 NNE 7 11 29.85 1011 2.5 4.02335 0 0
6:33 pm 18:33 Cloudy with Light Rain 39 4 39 4 100 100 NE 8 13 29.86 1011 1.5 2.41401 0 0
6:47 pm 18:47 Cloudy with Light Rain 39 4 39 4 100 100 NE 8 13 29.87 1011 3 4.82802 0 0
6:56 pm 18:56 Cloudy with Light Rain 39 3.9 39 3.9 100 100 NE 8 13 29.86 1011 4 6.43736 0 0
7:19 pm 19:19 Cloudy with Light Rain 39 4 39 4 100 100 NNE 8 13 29.88 1012 2.5 4.02335 0 0
7:33 pm 19:33 Cloudy with Light Rain 37 3 37 3 100 100 NNE 9 15 29.88 1012 4 6.43736 0 0
7:56 pm 19:56 Cloudy with Mist and Fog 38 3.3 38 3.3 100 100 NE 9 15 29.87 1012 4 6.43736 0 0
8:56 pm 20:56 Cloudy with Mist and Fog 37 2.8 37 2.8 100 100 NNE 6 9 29.89 1012 3 4.82802 0 0
9:27 pm 21:27 Cloudy with Light Rain 37 3 37 3 100 100 N 7 11 29.91 1013 2 3.21868 0 0
9:51 pm 21:51 Cloudy with Light Rain 37 3 37 3 100 100 N 9 15 29.92 1013 2.5 4.02335 0 0
9:56 pm 21:56 Cloudy with Light Rain 36 2.2 36 2.2 100 100 N 8 13 29.9 1013 2.5 4.02335 0 0
10:04 pm 22:04 Cloudy with Light Rain 36 2 36 2 100 100 NNE 7 11 29.92 1013 2 3.21868 0 0
10:14 pm 22:14 Cloudy with Light Rain 36 2 36 2 100 100 N 5 7 29.92 1013 2 3.21868 0 0
10:28 pm 22:28 Cloudy with Light Rain 36 2 36 2 100 100 N 7 11 29.92 1013 3 4.82802 0 0
10:43 pm 22:43 Cloudy with Light Rain 36 2 36 2 100 100 NNE 7 11 29.91 1013 4 6.43736 0 0
10:56 pm 22:56 Cloudy with Mist and Fog 36 2.2 36 2.2 100 100 NNE 7 11 29.9 1012 4 6.43736 0 0
11:56 pm 23:56 Cloudy with Mist and Fog 36 2.2 36 2.2 100 100 NNE 8 13 29.89 1012 5 8.0467 0 0

Powered by AerisWeather